Flag for Brazil Weather past 2 weeks in Manaus, Amazonas, Brazil

Now
75 °F

Scattered showers. Passing clouds.


Feels Like: 74 °F
Forecast: 76 / 87 °F
Wind: 6 mph from West

Location: Manaus Aeroporto


UV Index: 3 (Moderate)

Visibility: N/A


Pressure: 29.83 "Hg

Humidity: 94%

Dew point: 73 °F

Location of ManausLocation

Historic Weather in Manaus

°F

Manaus temperature yesterday

Maximum temperature yesterday: 88 °F (at 3:00 PM)
Minimum temperature yesterday: 77 °F (at 3:00 AM)
Average temperature yesterday: 81 °F

Past Weeks' High & Low Weather Summary

 TemperatureHumidityPressure
High90 °F (Apr 11, 3:00 PM)100% (Apr 17, 10:00 AM)29.98 "Hg (Apr 17, 10:00 AM)
Low43 °F (Apr 21, 3:00 PM)16% (Apr 23, 2:00 PM)29.74 "Hg (Apr 13, 3:00 PM)
Average79 °F84%29.87 "Hg
* Reported Apr 10 3:00 AM — Apr 25 3:00 AM, Manaus, Weather by CustomWeather, © 2014

Note: Actual official high and low records may vary slightly from our data, if they occured in-between our weather recording intervals... More about our weather records

Advertising

Historic Weather Conditions — Data for Previous 24 hours

 ConditionsComfort  
Time TempWeatherWind HumidityBarometerVisibility
3:00 AM
Apr 25
75 °FScattered showers. Passing clouds.6 mph94%N/AN/A
2:00 AM77 °FThunderstorms. Passing clouds.2 mph94%N/AN/A
1:00 AM77 °FLight rain. Passing clouds.No wind94%N/AN/A
12:00 AM79 °FThunderstorms. Passing clouds.2 mph89%29.89 "HgN/A
11:00 PM
Apr 24
77 °FThunderstorms. Passing clouds.No wind94%29.89 "HgN/A
10:00 PM79 °FThunderstorms. Passing clouds.2 mph89%29.92 "HgN/A
9:00 PM79 °FThunderstorms. Passing clouds.5 mph84%29.89 "HgN/A
8:00 PM82 °FThunderstorms. Passing clouds.6 mph74%29.86 "HgN/A
7:00 PM82 °FPassing clouds.6 mph79%29.83 "HgN/A
6:00 PM82 °FPassing clouds.7 mph84%29.80 "HgN/A
5:00 PM84 °FScattered clouds.5 mph74%29.80 "HgN/A
4:00 PM86 °FScattered clouds.3 mph66%29.80 "HgN/A
3:00 PM88 °FScattered clouds.5 mph62%29.80 "HgN/A
2:00 PM86 °FScattered clouds.6 mph70%29.83 "HgN/A
1:00 PM86 °FPassing clouds.5 mph70%29.86 "HgN/A
12:00 PM84 °FScattered clouds.5 mph70%29.92 "HgN/A
11:00 AM84 °FPartly sunny.3 mph74%29.95 "HgN/A
10:00 AM82 °FPartly sunny.5 mph79%29.95 "HgN/A
9:00 AM79 °FPartly sunny.6 mph89%29.98 "HgN/A
8:00 AM79 °FPartly sunny.3 mph89%29.95 "HgN/A
7:00 AM77 °FPartly sunny.3 mph94%29.92 "HgN/A
6:00 AM77 °FPartly sunny.2 mph94%29.89 "HgN/A
5:00 AM77 °FPassing clouds.3 mph94%29.89 "HgN/A
4:00 AM77 °FPassing clouds.3 mph94%29.89 "HgN/A
3:00 AM77 °FPassing clouds.3 mph94%29.89 "HgN/A
Weather by CustomWeather, © 2014

See weather overview